2008 HW1

Japanese version
Home page
Total 5,708 html files since Dec. 4, 1995
Updated on April 29, 2008

---------------------------------------------------------------------

* Profile

Discovery Date April 25, 2008
Magnitude 17.3 mag
Discoverer Lincoln Laboratory Near-Earth Asteroid Research project

* Orbital Elements

Epoch 2008 May 14.0 TT = JDT 2454600.5                  MPC
M 351.90085              (2000.0)            P               Q
n   0.23717792     Peri.  248.82370     +0.93799090     -0.31601568
a   2.5847579      Node   129.30993     +0.34459436     +0.89478666
e   0.9606052      Incl.   10.61314     -0.03778623     +0.31542183
P   4.16           H   17.4           G   0.15           U   6

* Finding Charts

* Magnitudes Graph

        H = 17.4  G = 0.15

---------------------------------------------------------------------

The orbital elements are published on M.P.E.C. 2008-H35.
The charts are made with StellaNavigator Ver.8 (AstroArts).
The magnitudes graphs are made with Comet for Windows.

---------------------------------------------------------------------

Copyright(C) 1995-2007 Seiichi Yoshida (comet@aerith.net). All rights reserved.